Simultaneous Nadir Overpasses (SNOs) Predictions

Prediction of SNOs between NOAA-20 and METOP-C Satellite Orbit:

Table of predicted SNOs for the next 14.0 days since TLE Epoch: 3/12/2022
Index Date (NOAA-20) Time (NOAA-20) Lat,Lon (NOAA-20) SZA (NOAA-20 ) Date (METOP-C) Time (METOP-C) Lat,Lon (METOP-C) SZA (METOP-C ) Distance(km) Time Diff (sec)
1 03/14/2022 07:05:17 73.37, 64.13 76.15 03/14/2022 07:06:24 73.32, 66.78 75.94 84.71 67
2 03/14/2022 07:56:00 -73.32,-128.42 103.93 03/14/2022 07:57:08 -73.24,-126.07 104.15 75.84 68
3 03/14/2022 08:46:41 73.07, 39.42 75.79 03/14/2022 08:47:51 73.05, 40.85 75.67 46.34 70
4 03/14/2022 09:37:24 -73.02,-153.14 104.29 03/14/2022 09:38:35 -72.97,-151.99 104.42 37.63 71
5 03/14/2022 10:28:05 72.77, 14.69 75.43 03/14/2022 10:29:19 72.73, 14.83 75.36 7.02 74
6 03/14/2022 11:18:48 -72.72,-177.88 104.65 03/14/2022 11:20:02 -72.70,-177.90 104.68 2.33 74
7 03/14/2022 12:09:34 72.72, -10.58 75.35 03/14/2022 12:10:41 72.71, -10.55 75.31 2.35 67
8 03/14/2022 13:00:18 -72.72, 156.74 104.68 03/14/2022 13:01:23 -72.73, 156.82 104.69 2.68 65
9 03/14/2022 13:51:03 72.68, -35.86 75.27 03/14/2022 13:52:03 72.68, -35.94 75.27 2.85 60
10 03/14/2022 14:41:48 -72.72, 131.37 104.70 03/14/2022 14:42:45 -72.71, 131.44 104.73 2.72 57
11 03/14/2022 15:32:33 72.68, -61.23 75.24 03/14/2022 15:33:25 72.66, -61.32 75.22 3.08 52
12 03/14/2022 16:23:17 -72.67, 106.09 104.78 03/14/2022 16:24:07 -72.69, 106.05 104.78 2.20 50
13 03/14/2022 17:14:03 72.68, -86.61 75.21 03/14/2022 17:14:46 72.70, -86.59 75.22 1.94 43
14 03/14/2022 18:04:47 -72.67, 80.71 104.81 03/14/2022 18:05:29 -72.67, 80.67 104.82 1.49 42
15 03/14/2022 18:55:33 72.68,-111.99 75.19 03/14/2022 18:56:08 72.68,-111.98 75.17 0.75 35
16 03/14/2022 19:46:17 -72.68, 55.34 104.84 03/14/2022 19:46:50 -72.70, 55.40 104.82 3.25 33
17 03/14/2022 20:37:03 72.68,-137.37 75.16 03/14/2022 20:37:30 72.65,-137.36 75.13 3.04 27
18 03/14/2022 21:27:47 -72.68, 29.96 104.86 03/14/2022 21:28:12 -72.68, 30.01 104.87 1.85 25
19 03/14/2022 22:18:32 72.63,-162.64 75.08 03/14/2022 22:18:52 72.63,-162.74 75.08 3.23 20
20 03/14/2022 23:09:17 -72.68, 4.58 104.89 03/14/2022 23:09:34 -72.66, 4.63 104.92 2.85 17
21 03/15/2022 00:00:02 72.63, 171.98 75.05 03/15/2022 00:00:13 72.67, 171.98 75.08 3.42 11
22 03/15/2022 00:50:46 -72.63, -20.69 104.97 03/15/2022 00:50:56 -72.64, -20.75 104.96 2.06 10
23 03/15/2022 01:41:32 72.64, 146.60 75.03 03/15/2022 01:41:35 72.64, 146.60 75.04 0.98 3
24 03/15/2022 02:32:16 -72.63, -46.07 105.00 03/15/2022 02:32:18 -72.62, -46.13 105.01 2.48 2
25 03/15/2022 03:23:02 72.64, 121.22 75.00 03/15/2022 03:22:57 72.62, 121.22 74.99 1.47 5
26 03/15/2022 04:13:46 -72.63, -71.45 105.02 03/15/2022 04:13:39 -72.65, -71.41 105.01 2.18 7
27 03/15/2022 05:04:32 72.64, 95.85 74.98 03/15/2022 05:04:18 72.66, 95.94 74.99 3.69 14
28 03/15/2022 05:55:16 -72.63, -96.83 105.05 03/15/2022 05:55:01 -72.63, -96.79 105.05 1.45 15
29 03/15/2022 06:46:02 72.64, 70.47 74.95 03/15/2022 06:45:40 72.63, 70.56 74.94 3.20 22
30 03/15/2022 07:36:45 -72.59,-122.10 105.13 03/15/2022 07:36:23 -72.61,-122.17 105.10 3.37 22
31 03/15/2022 08:27:31 72.59, 45.19 74.87 03/15/2022 08:27:02 72.61, 45.18 74.90 2.57 29
32 03/15/2022 09:18:15 -72.59,-147.48 105.16 03/15/2022 09:17:45 -72.59,-147.55 105.15 2.42 30
33 03/15/2022 10:09:01 72.59, 19.82 74.84 03/15/2022 10:08:24 72.59, 19.80 74.85 0.54 37
34 03/15/2022 10:59:45 -72.59,-172.86 105.18 03/15/2022 10:59:06 -72.62,-172.83 105.15 3.34 39
35 03/15/2022 11:50:31 72.60, -5.56 74.81 03/15/2022 11:49:46 72.57, -5.58 74.81 2.45 45
36 03/15/2022 12:41:15 -72.59, 161.77 105.21 03/15/2022 12:40:28 -72.60, 161.79 105.19 1.11 47
37 03/15/2022 13:32:01 72.60, -30.94 74.79 03/15/2022 13:31:07 72.60, -30.86 74.80 2.83 54
38 03/15/2022 14:22:45 -72.59, 136.39 105.24 03/15/2022 14:21:50 -72.58, 136.41 105.24 1.80 55
39 03/15/2022 15:13:31 72.60, -56.32 74.76 03/15/2022 15:12:29 72.58, -56.24 74.76 3.04 62
40 03/15/2022 16:04:14 -72.54, 111.11 105.32 03/15/2022 16:03:12 -72.56, 111.03 105.29 3.25 62
41 03/15/2022 16:55:00 72.55, -81.59 74.68 03/15/2022 16:53:51 72.56, -81.62 74.71 1.88 69
42 03/15/2022 17:45:44 -72.54, 85.74 105.34 03/15/2022 17:44:34 -72.54, 85.65 105.33 3.11 70
43 03/15/2022 18:36:28 72.45,-106.76 74.54 03/15/2022 18:35:15 72.44,-107.21 74.58 14.84 73
44 03/15/2022 19:27:11 -72.39, 60.66 105.54 03/15/2022 19:25:58 -72.41, 60.06 105.47 20.34 73
45 03/15/2022 20:17:51 72.14,-131.54 74.18 03/15/2022 20:16:41 72.16,-133.09 74.31 52.82 70
46 03/15/2022 21:08:34 -72.09, 35.88 105.90 03/15/2022 21:07:24 -72.14, 34.18 105.74 58.28 70
47 03/15/2022 21:59:15 71.84,-156.33 73.82 03/15/2022 21:58:09 71.84,-159.05 73.99 94.18 66
48 03/15/2022 22:49:58 -71.78, 11.09 106.26 03/15/2022 22:48:52 -71.81, 8.23 106.05 99.35 66



Historial Predications of SNOs between NOAA-20 and METOP-C
